Location: Albuquerque Trailhead
(34.7934°N, 106.3736°W)
Time: 00:37:48
(UTC+00:00)

ATLAS 3B R/B - Pass Details

Date: 20 June 2021
Orbit: 1003 x 1191 km, 63.8° (Epoch: 21 July)

Event Time Altitude Azimuth Distance (km) Brightness Sun altitude
Rises 03:49:50 0° 201° (SSW) 3,712 5.3 -15.3°
Reaches altitude 10° 03:52:24 10° 198° (SSW) 2,765 4.6 -15.7°
Maximum altitude 03:58:49 68° 117° (ESE) 1,082 2.5 -16.6°
Drops below altitude 10° 04:05:24 10° 36° (NE) 2,837 5.1 -17.6°
Sets 04:08:04 0° 34° (NNE) 3,815 5.8 -17.9°
